contact:dominique.lefevre@mio.osupytheas.fr, maurice.libes@osupytheas.fr
Project:EMSO Ligure-ouest http://www.emso-fr.org/EMSO-France
Sensor Aquadopp, line 13 Serial AQD14315 
DOI : "https://doi.org/10.17882/74513; https://doi.org/10.17882/83244" 
Title:EMSO Ligure Ouest : Data ligne ALBATROSS capteur AQUADOPP - deploiement 2021
Id,Date,Profondeur,Latitude,Longitude,X_East,Y_North,Z_Up,Amplitude_X,Amplitude_Y,Amplitude_Z,Batterie,SoundSpeed,Heading,Pitch,Roll,Pressure,Temperature,Speed,Direction
, , m, degrees North, degrees East, m.s-1, m.s-1,m.s-1, 1, 1, 1, Volt, m.s-1, degree, degree, degree, dbar, degree_C, m.s-1, degree
11,2022-03-18T22:00:00,2200.0,42.79,6.0312,-0.039,0.017,0.005,60.0,63.0,64.0,12.2,1504.3,10.7,-0.3,-0.3,2192.85,13.17,0.042,293.5
11,2022-03-18T22:30:00,2200.0,42.79,6.0312,-0.032,0.017,0.0,62.0,64.0,66.0,12.1,1504.3,18.1,0.0,0.1,2192.804,13.17,0.036,298.0
11,2022-03-18T23:00:00,2200.0,42.79,6.0312,-0.02,0.027,0.012,61.0,65.0,66.0,12.1,1504.3,39.8,-0.4,-0.1,2192.78,13.17,0.033,323.5
11,2022-03-18T23:30:00,2200.0,42.79,6.0312,-0.024,0.034,0.0,63.0,64.0,66.0,12.1,1504.3,40.4,-0.1,-0.1,2192.764,13.17,0.041,324.8
11,2022-03-19T00:00:00,2200.0,42.79,6.0312,0.001,0.029,0.018,64.0,65.0,70.0,12.2,1504.3,58.8,0.0,0.0,2192.736,13.18,0.029,2.0
11,2022-03-19T00:30:00,2200.0,42.79,6.0312,-0.003,0.018,0.01,62.0,65.0,69.0,12.2,1504.3,65.7,0.2,0.1,2192.726,13.17,0.018,350.5
11,2022-03-19T01:00:00,2200.0,42.79,6.0312,0.008,0.024,0.011,62.0,65.0,70.0,12.2,1504.3,78.6,-0.2,-0.2,2192.725,13.17,0.025,18.4
11,2022-03-19T01:30:00,2200.0,42.79,6.0312,0.005,0.015,0.009,62.0,66.0,67.0,12.2,1504.3,93.4,-0.3,-0.2,2192.663,13.17,0.015,18.4
11,2022-03-19T02:00:00,2200.0,42.79,6.0312,-0.001,0.004,-0.007,64.0,68.0,68.0,12.2,1504.3,91.0,-0.2,0.0,2192.711,13.17,0.004,346.0
11,2022-03-19T02:30:00,2200.0,42.79,6.0312,-0.001,-0.002,0.0,63.0,67.0,67.0,12.2,1504.3,94.6,-0.1,0.1,2192.686,13.17,0.002,206.6
11,2022-03-19T03:00:00,2200.0,42.79,6.0312,-0.004,0.006,0.016,62.0,67.0,69.0,12.2,1504.3,99.3,-0.2,-0.3,2192.703,13.17,0.007,326.3
11,2022-03-19T03:30:00,2200.0,42.79,6.0312,0.002,-0.007,-0.003,66.0,69.0,68.0,12.2,1504.3,94.6,-0.1,-0.3,2192.668,13.17,0.007,164.1
11,2022-03-19T04:00:00,2200.0,42.79,6.0312,-0.013,-0.014,-0.005,64.0,66.0,66.0,12.2,1504.3,95.3,0.1,0.1,2192.738,13.17,0.019,222.9
11,2022-03-19T04:30:00,2200.0,42.79,6.0312,-0.013,-0.02,0.0,64.0,68.0,67.0,12.2,1504.3,130.6,0.1,-0.1,2192.761,13.17,0.023,213.0
11,2022-03-19T05:00:00,2200.0,42.79,6.0312,-0.013,-0.021,-0.014,63.0,65.0,68.0,12.1,1504.3,134.4,0.1,-0.2,2192.775,13.17,0.024,211.8
11,2022-03-19T05:30:00,2200.0,42.79,6.0312,-0.008,-0.019,0.017,65.0,65.0,67.0,12.2,1504.3,103.3,-0.2,-0.3,2192.848,13.17,0.02,202.8
11,2022-03-19T06:00:00,2200.0,42.79,6.0312,-0.027,-0.023,-0.013,67.0,66.0,67.0,12.2,1504.3,104.6,-0.2,0.1,2192.911,13.17,0.035,229.6
11,2022-03-19T06:30:00,2200.0,42.79,6.0312,-0.023,-0.032,0.002,61.0,67.0,67.0,12.2,1504.3,85.3,0.0,0.0,2192.879,13.17,0.039,215.7
11,2022-03-19T07:00:00,2200.0,42.79,6.0312,-0.027,-0.004,0.008,63.0,63.0,67.0,12.2,1504.3,153.5,0.0,0.1,2192.944,13.17,0.027,261.6
11,2022-03-19T07:30:00,2200.0,42.79,6.0312,-0.031,-0.011,0.0,62.0,63.0,65.0,12.2,1504.3,354.4,0.1,-0.3,2192.941,13.17,0.032,250.5
11,2022-03-19T08:00:00,2200.0,42.79,6.0312,-0.037,-0.004,0.005,61.0,64.0,66.0,12.2,1504.3,342.4,-0.3,0.0,2192.999,13.17,0.037,263.8
11,2022-03-19T08:30:00,2200.0,42.79,6.0312,-0.039,0.006,-0.004,61.0,65.0,67.0,12.2,1504.3,332.6,0.0,0.0,2192.948,13.17,0.039,278.7
11,2022-03-19T09:00:00,2200.0,42.79,6.0312,-0.025,0.012,0.01,62.0,66.0,66.0,12.2,1504.3,329.8,-0.5,-0.3,2192.927,13.17,0.027,295.6
11,2022-03-19T09:30:00,2200.0,42.79,6.0312,-0.017,0.039,0.008,61.0,64.0,67.0,12.2,1504.3,337.4,-0.1,-0.3,2192.952,13.17,0.042,336.5
11,2022-03-19T10:00:00,2200.0,42.79,6.0312,-0.043,0.019,0.0,64.0,68.0,68.0,12.2,1504.3,314.7,-0.5,0.2,2192.925,13.18,0.047,293.8
11,2022-03-19T10:30:00,2200.0,42.79,6.0312,-0.022,0.035,0.005,64.0,70.0,68.0,12.2,1504.3,325.3,-0.5,0.1,2192.894,13.17,0.041,327.8
11,2022-03-19T11:00:00,2200.0,42.79,6.0312,-0.026,0.038,0.016,64.0,67.0,69.0,12.2,1504.3,325.2,-0.5,-0.2,2192.872,13.17,0.046,325.6
11,2022-03-19T11:30:00,2200.0,42.79,6.0312,-0.005,0.037,0.021,65.0,67.0,70.0,12.1,1504.3,338.6,-0.3,0.2,2192.845,13.17,0.037,352.3
11,2022-03-19T12:00:00,2200.0,42.79,6.0312,0.003,0.041,-0.002,63.0,64.0,67.0,12.1,1504.3,345.8,-0.3,-0.2,2192.809,13.17,0.041,4.2
11,2022-03-19T12:30:00,2200.0,42.79,6.0312,0.015,0.038,0.012,61.0,65.0,67.0,12.2,1504.3,352.7,-0.4,0.0,2192.79,13.17,0.04,21.5
11,2022-03-19T13:00:00,2200.0,42.79,6.0312,0.015,0.031,0.002,63.0,67.0,67.0,12.1,1504.3,348.8,-0.3,0.0,2192.794,13.17,0.034,25.8
11,2022-03-19T13:30:00,2200.0,42.79,6.0312,0.023,0.035,0.008,62.0,65.0,65.0,12.2,1504.3,341.3,-0.2,-0.2,2192.795,13.17,0.041,33.3
11,2022-03-19T14:00:00,2200.0,42.79,6.0312,0.012,0.034,-0.007,62.0,66.0,70.0,12.2,1504.3,344.2,-0.2,0.1,2192.78,13.17,0.036,19.4
11,2022-03-19T14:30:00,2200.0,42.79,6.0312,0.015,0.038,0.0,62.0,64.0,68.0,12.2,1504.3,340.4,-0.3,0.0,2192.697,13.17,0.04,21.5
11,2022-03-19T15:00:00,2200.0,42.79,6.0312,0.025,0.037,0.007,62.0,66.0,66.0,12.2,1504.3,353.2,-0.2,-0.1,2192.688,13.17,0.044,34.0
11,2022-03-19T15:30:00,2200.0,42.79,6.0312,0.033,0.039,0.003,63.0,65.0,66.0,12.1,1504.3,343.0,-0.2,-0.1,2192.726,13.17,0.051,40.2
11,2022-03-19T16:30:00,2200.0,42.79,6.0312,0.028,0.025,0.007,62.0,67.0,66.0,12.2,1504.3,356.8,-0.1,0.1,2192.768,13.17,0.037,48.2
11,2022-03-19T17:00:00,2200.0,42.79,6.0312,0.034,0.032,-0.007,64.0,67.0,67.0,12.2,1504.3,353.4,-0.6,-0.2,2192.788,13.17,0.046,46.7
11,2022-03-19T17:30:00,2200.0,42.79,6.0312,0.037,0.022,0.011,63.0,65.0,69.0,12.2,1504.3,356.0,-0.3,-0.2,2192.82,13.17,0.043,59.3
11,2022-03-19T18:00:00,2200.0,42.79,6.0312,0.035,0.026,0.006,63.0,66.0,67.0,12.1,1504.3,356.9,-0.2,0.1,2192.856,13.17,0.043,53.4
11,2022-03-19T18:30:00,2200.0,42.79,6.0312,0.034,0.022,0.0,65.0,65.0,68.0,12.1,1504.3,357.8,-0.2,0.0,2192.925,13.17,0.04,57.1
11,2022-03-19T19:00:00,2200.0,42.79,6.0312,0.04,0.012,0.019,64.0,67.0,68.0,12.1,1504.3,348.8,-0.2,-0.3,2192.913,13.17,0.041,73.3
11,2022-03-19T19:30:00,2200.0,42.79,6.0312,0.024,0.019,0.004,61.0,63.0,66.0,12.1,1504.3,354.1,-0.5,-0.2,2192.893,13.17,0.03,51.6
11,2022-03-19T20:00:00,2200.0,42.79,6.0312,0.027,0.01,0.008,60.0,63.0,68.0,12.1,1504.3,351.1,-0.2,-0.3,2192.941,13.17,0.028,69.7
11,2022-03-19T20:30:00,2200.0,42.79,6.0312,0.025,0.022,0.033,61.0,67.0,66.0,12.1,1504.3,354.2,-0.4,0.1,2192.903,13.17,0.033,48.7
11,2022-03-19T21:00:00,2200.0,42.79,6.0312,0.01,0.022,0.007,60.0,62.0,65.0,12.2,1504.3,347.8,-0.5,-0.3,2192.912,13.17,0.024,24.4
